Regional Weather Roundup
Issued by NWS

Home | Current Version | Previous Version | Graphics & Text | Print | Product List | Glossary On
Versions: 1 2 3 4 5 6 7 8 9 10 11 12 13 14 15 16 17 18 19 20 21 22 23 24 25 26 27 28 29 30 31 32 33 34 35 36 37 38 39 40 41
000
ASUS45 KCYS 270110
RWRWY

WYOMING REGIONAL WEATHER ROUNDUP
NATIONAL WEATHER SERVICE CHEYENNE WY
600 PM MST FRI DEC 26 2014

NOTE:  "FAIR" INDICATES FEW OR NO CLOUDS BELOW 12,000 FEET
WITH NO SIGNIFICANT WEATHER AND/OR OBSTRUCTIONS TO VISIBILITY.

WYZ001-270200-
YELLOWSTONE NATIONAL PARK

CITY           SKY/WX    TMP DP  RH WIND       PRES   REMARKS
LK YELLOWSTONE   N/A     10   4  76 NW6       29.97R WCI   0
W YELLOWSTONE  NOT AVBL

$$
WYZ002>013-054>058-071-098>099-270200-
NORTHERN WYOMING

CITY           SKY/WX    TMP DP  RH WIND       PRES   REMARKS
JACKSON        CLOUDY    16  10  79 CALM      30.00R
CODY           CLOUDY    19  14  79 CALM      30.04R
GREYBULL       CLOUDY    13  11  92 CALM      30.11R
WORLAND        CLOUDY    12   9  87 SW3       30.09R
SHERIDAN       CLOUDY    13   6  74 CALM      30.08R
BUFFALO        CLOUDY    17  10  74 NW8       30.03R WCI   7
GILLETTE       FAIR      -4  -6  91 SW3       30.05R
HULETT           N/A    N/A N/A N/A MISG        N/A
NEWCASTLE      FAIR      14  10  85 NW6       30.06R WCI   5

$$
WYZ014>020-022>026-101>103-270200-
CENTRAL WYOMING

CITY           SKY/WX    TMP DP  RH WIND       PRES   REMARKS
BIG PINEY      CLOUDY     7   4  87 NE3       29.96R
PINEDALE       CLOUDY     5   5 100 W5        29.97R WCI  -4
DUBOIS         NOT AVBL
LANDER         CLOUDY    15   9  76 CALM      30.02R
RIVERTON       CLOUDY    14  11  87 SW6       30.03R WCI   5
CASPER         CLOUDY     9   8  96 CALM      30.02R
DOUGLAS        CLOUDY    16  11  80 NW10      30.03R WCI   4

$$
WYZ021-027>030-104>119-270200-
SOUTHERN WYOMING

CITY           SKY/WX    TMP DP  RH WIND       PRES   REMARKS
EVANSTON       LGT SNOW  15  13  91 N8        29.98R VSB 1   WCI   4
FORT BRIDGER   LGT SNOW  15  14  95 SW7       30.00R WCI   5
ROCK SPRINGS   LGT SNOW  13  10  88 N5        29.98R FOG     WCI   5
DIXON          FLURRIES  12   6  76 CALM      29.95R
RAWLINS        CLOUDY     9   4  80 N8        29.95R WCI  -3
SARATOGA       LGT SNOW  10   9  92 NW6       29.92R WCI   1
LARAMIE        LGT SNOW   7   4  87 NW7       29.88R FOG     WCI  -5
CHEYENNE       LGT SNOW  13   8  81 N7        29.94R WCI   3
TORRINGTON     LGT SNOW  17  15  92 W5        30.05R FOG     WCI  10
PINE BLUFFS    LGT SNOW  14  12  92 N3        30.01R

$$



USA.gov is the U.S. government's official web portal to all federal, state and local government web resources and services.